User: anonymous   Login
Location: Trois-Rivi�res
(46.3500°N, 72.5500°W)
Time: 07:08:19
(UTC-05:00)
Language:

SJ-11-01 - Orbit

View from above orbital plane
View from above orbital plane
View from above satellite
View from above satellite

Ground track
Ground track

The orbit data is extracted from the following two-line orbital elements,

1 36088U 09061A   14332.09792656  .00000957  00000-0  20757-3 0  6248
2 36088 098.0158 015.2880 0009862 292.0818 067.9345 14.60248743268657
Epoch (UTC): 28 November 2014 02:21:00
Eccentricity: 0.0009862
inclination: 98.0158°
perigee height: 685 km
apogee height: 699 km
right ascension of ascending node: 15.2880°
argument of perigee: 292.0818°
revolutions per day: 14.60248743
mean anomaly at epoch: 67.9345°
orbit number at epoch: 26865

The dashed part of the orbit path shows where the satellite is in the earth's shadow,  

DLR